Location: Newark
(13.6797°N, 8.5297°E)
Time: 03:57:21
(UTC+00:00)

Altair - Pass Details

Date: 04 February 2020
Orbit: 1502 x 1682 km, 47.2° (Epoch: 18 February)

Event Time Altitude Azimuth Distance (km) Brightness Sun altitude
Rises 09:56:54 0° 337° (NNW) 4,924 9.8 50.7°
Reaches altitude 10° 10:04:48 10° 15° (NNE) 3,937 9.5 51.9°
Maximum altitude 10:06:21 10° 24° (NNE) 3,902 9.6 52.2°
Drops below altitude 10° 10:07:55 10° 33° (NNE) 3,931 9.6 52.4°
Sets 10:15:41 0° 71° (ENE) 4,888 10.3 53.5°
